PLT7603 SBSL-SBGR

Flight info

Callsign PLT7603
Flight time N/A
Altitude 36000
Route ISKAB UZ2 PULUV/N0461F350 UZ2 MULUV/N0459F360 UZ38 VUNOX
Aircraft B738/M-SDE2E3FGHIRWXY/LB1

Departure

Time 2026-04-21 13:11
Airport Marechal Cunha Machado International Airport (SBSL)

Arrival

Time N/A
Airport São Paulo/Guarulhos–Governor André Franco Montoro International Airport (SBGR)
Time Latitude Longitude Altitude Speed Heading
2026-04-21 12:57 -2.58499 -44.23804 163 ft 0 kts 340°
2026-04-21 13:00 -2.58504 -44.23802 163 ft 4 kts 340°
2026-04-21 13:00 -2.58529 -44.23793 163 ft 3 kts 336°
2026-04-21 13:01 -2.58544 -44.23785 163 ft 2 kts 320°
2026-04-21 13:01 -2.58551 -44.23777 163 ft 2 kts 277°
2026-04-21 13:01 -2.58550 -44.23765 163 ft 2 kts 254°
2026-04-21 13:01 -2.58547 -44.23755 163 ft 2 kts 250°
2026-04-21 13:02 -2.58547 -44.23753 163 ft 0 kts 250°
2026-04-21 13:03 -2.58556 -44.23779 163 ft 6 kts 250°
2026-04-21 13:03 -2.58573 -44.23828 163 ft 9 kts 250°
2026-04-21 13:03 -2.58590 -44.23874 163 ft 0 kts 250°
2026-04-21 13:04 -2.58589 -44.23877 163 ft 1 kts 278°
2026-04-21 13:04 -2.58578 -44.23877 163 ft 2 kts 32°
2026-04-21 13:04 -2.58578 -44.23862 163 ft 5 kts 91°
2026-04-21 13:04 -2.58567 -44.23811 163 ft 10 kts 71°
2026-04-21 13:05 -2.58546 -44.23748 163 ft 9 kts 71°
2026-04-21 13:05 -2.58522 -44.23687 163 ft 10 kts 69°
2026-04-21 13:05 -2.58496 -44.23616 162 ft 11 kts 70°
2026-04-21 13:05 -2.58470 -44.23542 162 ft 11 kts 70°
2026-04-21 13:06 -2.58444 -44.23470 162 ft 11 kts 74°
2026-04-21 13:06 -2.58477 -44.23410 162 ft 11 kts 148°
2026-04-21 13:06 -2.58544 -44.23407 162 ft 10 kts 211°
2026-04-21 13:06 -2.58600 -44.23451 163 ft 11 kts 218°
2026-04-21 13:07 -2.58668 -44.23508 163 ft 14 kts 220°
2026-04-21 13:07 -2.58741 -44.23568 163 ft 14 kts 219°
2026-04-21 13:07 -2.58820 -44.23631 162 ft 15 kts 218°
2026-04-21 13:07 -2.58915 -44.23707 161 ft 20 kts 220°
2026-04-21 13:08 -2.59022 -44.23796 160 ft 20 kts 218°
2026-04-21 13:08 -2.59126 -44.23879 159 ft 19 kts 218°
2026-04-21 13:08 -2.59228 -44.23961 160 ft 19 kts 219°
2026-04-21 13:08 -2.59327 -44.24041 159 ft 18 kts 219°
2026-04-21 13:09 -2.59423 -44.24118 160 ft 17 kts 219°
2026-04-21 13:09 -2.59515 -44.24192 161 ft 17 kts 219°
2026-04-21 13:09 -2.59603 -44.24263 161 ft 16 kts 219°
2026-04-21 13:09 -2.59641 -44.24330 161 ft 7 kts 255°
2026-04-21 13:10 -2.59673 -44.24338 161 ft 7 kts 115°
2026-04-21 13:10 -2.59655 -44.24306 161 ft 0 kts 39°
2026-04-21 13:10 -2.59651 -44.24302 161 ft 6 kts 39°
2026-04-21 13:10 -2.59435 -44.24127 160 ft 75 kts 39°
2026-04-21 13:11 -2.58855 -44.23661 162 ft 136 kts 38°
2026-04-21 13:11 -2.58005 -44.22957 321 ft 172 kts 40°
2026-04-21 13:11 -2.57075 -44.22195 1012 ft 173 kts 39°
2026-04-21 13:11 -2.56149 -44.21479 1733 ft 168 kts 38°
2026-04-21 13:12 -2.55235 -44.20752 2280 ft 167 kts 39°
2026-04-21 13:12 -2.54301 -44.20001 2677 ft 177 kts 39°
2026-04-21 13:12 -2.53548 -44.19019 3032 ft 185 kts 74°
2026-04-21 13:12 -2.53629 -44.17735 3418 ft 193 kts 115°
2026-04-21 13:13 -2.54573 -44.16781 3793 ft 201 kts 157°
2026-04-21 13:13 -2.55947 -44.16447 4194 ft 207 kts 168°
2026-04-21 13:13 -2.57384 -44.16225 4551 ft 213 kts 180°
2026-04-21 13:13 -2.58852 -44.16575 4815 ft 223 kts 200°
2026-04-21 13:14 -2.60317 -44.17184 5059 ft 234 kts 202°
2026-04-21 13:14 -2.61855 -44.17850 5285 ft 248 kts 202°
2026-04-21 13:14 -2.63501 -44.18580 5479 ft 268 kts 204°
2026-04-21 13:14 -2.65204 -44.19437 5889 ft 278 kts 206°
2026-04-21 13:15 -2.66939 -44.20341 6471 ft 282 kts 206°
2026-04-21 13:15 -2.68683 -44.21255 7061 ft 284 kts 206°
2026-04-21 13:15 -2.70420 -44.22167 7686 ft 288 kts 206°
2026-04-21 13:15 -2.72208 -44.23106 8405 ft 291 kts 205°
2026-04-21 13:16 -2.74077 -44.23899 9155 ft 293 kts 198°